Weather History for Bonaire, Bonaire

Change the Weather History Date:

Monday, October 31, 2011

  Actual Average Record
Temperature  
Mean Temperature 84 °F -  
Max Temperature 89 °F 86 °F 93 °F (2006)
Min Temperature 79 °F 79 °F 75 °F (2013)
Cooling Degree Days 19    
Growing Degree Days 34 (Base 50)    
Moisture  
Dew Point 75 °F    
Average Humidity 75    
Maximum Humidity 89    
Minimum Humidity 51    
Precipitation  
Precipitation 0.00 in - - ()
Sea Level Pressure  
Sea Level Pressure 29.85 in    
Wind  
Wind Speed 6 mph ()    
Max Wind Speed 13 mph    
Max Gust Speed 24 mph    
Visibility 7.0 miles    
Events      
Averages and records for this station are not official NWS values.
T = Trace of Precipitation, MM = Missing Value Source: Averaged Metar Reports

Daily Weather History Graph

Daily Weather History Graph

Search for Another Location

Airport:

Trip Planner

Search our weather history database for the weather conditions in past years. The results will help you decide how hot, cold, wet, or windy it might be!

Date:

Astronomy

Oct. 31, 2011 Rise Set
Actual Time 6:25 AM AST 6:07 PM AST
Civil Twilight 6:03 AM AST 6:29 PM AST
Nautical Twilight 5:38 AM AST 6:54 PM AST
Astronomical Twilight 5:13 AM AST 7:19 PM AST
Moon 11:08 AM AST (10/31) 10:57 PM AST (10/31)
Length of Visible Light 12h 25m
Length of Day
11h 42m
Waxing Crescent, 29% of the Moon is Illuminated
Oct 31
Waxing Crescent
Nov 2
First Quarter
Nov 10
Full
Nov 18
Last Quarter
Nov 25
New

Hourly Weather History & Observations

Time (AST) Temp. Heat Index Dew Point Humidity Pressure Visibility Wind Dir Wind Speed Gust Speed Precip Events Conditions
12:00 AM 80.6 °F 86.2 °F 75.2 °F 84% 29.89 in 6.2 mi Calm Calm - N/A   Unknown
1:00 AM 80.6 °F 86.2 °F 75.2 °F 84% 29.89 in - North - - N/A   Unknown
2:00 AM 81 °F - 74 °F 75%  in - Calm Calm - -   Clear
2:00 AM 80.6 °F 86.2 °F 75.2 °F 84% 29.86 in - North - - N/A   Unknown
3:00 AM 80.6 °F 86.2 °F 75.2 °F 84% 29.83 in - Calm Calm - N/A   Unknown
4:00 AM 80.6 °F 86.2 °F 75.2 °F 84% 29.83 in - North - - N/A   Unknown
5:00 AM 80 °F - 75 °F 79%  in - Calm Calm - -   Clear
5:00 AM 80.6 °F 86.2 °F 75.2 °F 84% 29.86 in - North - - N/A   Unknown
6:00 AM 78.8 °F - 75.2 °F 89% 29.86 in - North - - N/A   Unknown
7:00 AM 80.6 °F 86.2 °F 75.2 °F 84% 29.86 in - North - - N/A   Unknown
8:00 AM 85 °F - 73 °F 61% 29.90 in 19 mi East 8.1 mph - -   Partly Cloudy
8:00 AM 86.0 °F 96.9 °F 77.0 °F 74% 29.89 in 6.2 mi East 10.4 mph - N/A   Scattered Clouds
9:00 AM 86.0 °F 96.9 °F 77.0 °F 74% 29.89 in 6.2 mi East 11.5 mph - N/A   Scattered Clouds
10:00 AM 86.0 °F 96.9 °F 77.0 °F 74% 29.89 in - North - - N/A   Unknown
11:00 AM 89 °F - 73 °F 51%  in 22 mi ESE 12.7 mph - -  
11:00 AM 87.8 °F 97.6 °F 75.2 °F 66% 29.89 in 6.2 mi East 11.5 mph - N/A   Mostly Cloudy
12:00 PM 87.8 °F 97.6 °F 75.2 °F 66% 29.89 in 6.2 mi East 12.7 mph - N/A   Scattered Clouds
1:00 PM 87.8 °F 99.7 °F 77.0 °F 70% 29.86 in 6.2 mi ESE 11.5 mph - N/A   Mostly Cloudy
2:00 PM 88 °F - 74 °F 56% 29.84 in 22 mi ESE 10.4 mph - -   Partly Cloudy
2:00 PM 87.8 °F 97.6 °F 75.2 °F 66% 29.83 in 6.2 mi ESE 10.4 mph 24.2 mph N/A   Scattered Clouds
3:00 PM 87.8 °F 97.6 °F 75.2 °F 66% 29.80 in 6.2 mi ESE 9.2 mph - N/A   Scattered Clouds
4:00 PM 86.0 °F 95.1 °F 75.2 °F 70% 29.80 in 6.2 mi East 10.4 mph - N/A   Scattered Clouds
5:00 PM 85 °F - 75 °F 66% 29.82 in 22 mi East 9.2 mph - -   Partly Cloudy
5:00 PM 86.0 °F 95.1 °F 75.2 °F 70% 29.80 in 6.2 mi East 9.2 mph - N/A   Scattered Clouds
6:00 PM 84.2 °F 92.3 °F 75.2 °F 74% 29.80 in - North - - N/A   Unknown
7:00 PM 82.4 °F 89.5 °F 75.2 °F 79% 29.83 in 6.2 mi East 5.8 mph - N/A   Partly Cloudy
8:00 PM 82 °F - 76 °F 76% 29.86 in 22 mi East 5.8 mph - -   Partly Cloudy
8:00 PM 82.4 °F 90.9 °F 77.0 °F 84% 29.83 in 6.2 mi East 5.8 mph - N/A   Scattered Clouds
9:00 PM 82.4 °F 89.5 °F 75.2 °F 79% 29.86 in 6.2 mi East 5.8 mph - N/A   Partly Cloudy
10:00 PM 80.6 °F 86.2 °F 75.2 °F 84% 29.89 in - North - - N/A   Unknown
11:00 PM 81 °F - 76 °F 79%  in 6 mi Calm Calm - -   Clear
11:00 PM 80.6 °F 86.2 °F 75.2 °F 84% 29.89 in - North - - N/A   Unknown